Regional Weather Roundup
Issued by NWS

Home | Current Version | Previous Version | Graphics & Text | Print | Product List | Glossary On
Versions: 1 2 3 4 5 6 7 8 9 10 11 12 13 14 15 16 17 18 19 20 21 22 23 24 25 26 27 28 29 30 31 32 33 34 35 36 37 38 39 40 41 42 43 44 45 46 47 48 49 50
000
ASUS43 KLSX 010507
RWRMO

WEATHER SUMMARY FOR MISSOURI
NATIONAL WEATHER SERVICE SPRINGFIELD MO
1200 AM CDT SAT AUG 01 2015

NOTE: "FAIR" INDICATES FEW OR NO CLOUDS BELOW 12,000 FEET WITH NO
       SIGNIFICANT WEATHER AND/OR OBSTRUCTIONS TO VISIBILITY.
       CURRENT SKY AND/OR WEATHER CONDITIONS ARE NOT AVAILABLE FOR
       CHILLICOTHE AND FARMINGTON.

MOZ001>031-035>038-043-044-053-054-010600-
...NORTHERN AND WESTERN MISSOURI...

CITY           SKY/WX    TMP DP  RH WIND       PRES   REMARKS
KANSAS CTY INT MOCLDY    74  68  81 S3        30.08R
KANSAS C DTWN  PTCLDY    80  71  74 CALM      30.07R
LEE`S SUMMIT   CLEAR     78  65  63 CALM      30.09R
ST JOSEPH      MOCLDY    74  70  87 SW3       30.07F
CHILLICOTHE      N/A     78  73  84 CALM      30.08R
KIRKSVILLE     MOCLDY    73  70  90 CALM      30.08S

$$
MOZ066>068-077>081-088>096-101>105-010600-
...SOUTHWEST MISSOURI...

CITY           SKY/WX    TMP DP  RH WIND       PRES   REMARKS
SPRINGFIELD    CLEAR     71  60  68 CALM      30.11S
JOPLIN         CLEAR     70  57  63 CALM      30.11S

$$
MOZ032>034-039>042-045>050-055>058-069>072-010600-
...CENTRAL MISSOURI...

CITY           SKY/WX    TMP DP  RH WIND       PRES   REMARKS
COLUMBIA       PTCLDY    77  68  73 CALM      30.07F
JEFFERSON CITY CLEAR     71  68  90 CALM      30.06S
ROLLA          CLEAR     68  64  87 SW5       30.09S
SEDALIA        CLEAR     75  66  73 SW6       30.08F
WHITEMAN AFB   CLEAR     74  66  75 SW3       30.06F
WARRENSBURG    CLEAR     72  68  88 CALM      30.07S
OSAGE BEACH    CLEAR     72  66  83 CALM      30.09S

$$
MOZ051-052-059>065-010600-
...EAST CENTRAL MISSOURI...

CITY           SKY/WX    TMP DP  RH WIND       PRES   REMARKS
ST LOUIS INTL  PTCLDY    78  65  63 CALM      30.06S
SPIRIT OF STL  CLEAR     72  69  90 CALM      30.04F
ST CHARLES     CLEAR     74  70  87 CALM      30.05R

$$
MOZ072>076-082>087-097>100-106>115-010600-
...SOUTH CENTRAL AND SOUTHEAST MISSOURI...

CITY           SKY/WX    TMP DP  RH WIND       PRES   REMARKS
CAPE GIRARDEAU CLEAR     71  70  96 CALM      30.05S
FARMINGTON     CLEAR     68  64  88 CALM      30.13R
POPLAR BLUFF   CLEAR     73  71  93 CALM      30.06R
WEST PLAINS    CLEAR     69  63  81 CALM      30.13R

$$


USA.gov is the U.S. government's official web portal to all federal, state and local government web resources and services.